Tracking 30696 objects as of 15-Jun-2025
HD Live streaming from Space Station
objects crossing your sky now

COSMOS 535

Track COSMOS 535 now!
10-day predictions
COSMOS 535 is classified as:


NORAD ID: 6270
Int'l Code: 1972-087H
Perigee: 1,390.1 km
Apogee: 1,475.4 km
Inclination: 74.0 °
Period: 114.3 minutes
Semi major axis: 7803 km
RCS: 0.7336 m2 (medium)
Launch date: November 1, 1972
Source: Commonwealth of Independent States (former USSR) (CIS)
Launch site: PLESETSK MISSILE AND SPACE COMPLEX (PKMTR)
Your satellite tracking list
Your tracking list is empty




NASA's NSSDC Master Catalog

Two Line Element Set (TLE):
1 06270U 72087H   25166.39830301 -.00000008  00000-0  49475-4 0  9998
2 06270  74.0364  28.1191 0054638 223.0098 311.3225 12.59345640418855
Source of the keplerian elements: AFSPC